Погода Готня

Погода Готня : погода сейчас, прогноз погоды и архив. Всё, что Вы хотите узнать о погоде Готня!

Поиск расширенной информации на нашем сайте:

Другие новости

Новости СМИ2

Главная страница сайта

Новости сайта

03.07.2017

Напоминаем, что на нашем специализированном сайте Метеоцентр.Азия вы можете получить высокодетализированные автоматические прогнозы погоды по пунктам России, СНГ и мира в авиационном формате (включающие направление и скорость ветра, видимость, явления погоды, количество и форму облачности, нижнюю и верхнюю границу облачности).


Погода Готня - сегодня

Время (UTC), дата Ветер
(°,м/с) 
Видим.   Явления Облачность Т
(°С)
Тd
(°С)
f(%) Тe
(°С)
Pmin
(гПа)
dP
(гПа)
Po
(мм)
O2
(г/м3)
Тmin Tmax R s Состояние
почвы
18 18.01.18 130 (ЮВ) 5-10{11}  10 км    10/10 600 м кучево-дожд. 
[Cb calv]
-2 -3.5 89 -5  1009  0.7  736  299    +1.6       
21 18.01.18 140 (ЮВ) 5-10{12}  10 км    10/10 600 м кучево-дожд. 
[Cb calv]
-2.1 -3.9 87 -5  1009.3  0.2  736  299           
00 19.01.18 140 (ЮВ) 1{11}  10 км    8/8 600 м кучево-дожд. 
[Cb calv]
-4.9 -8.5 76 -4  1009.5  -0.1  736  303           
03 19.01.18 130 (ЮВ) 5{10}  10 км    6/6 600 м 
[Sc]
-7.2 -11.1 74 -11  1008.8  -0.9  735  305  -7.3         
06 19.01.18 150 (ЮВ) 4{10}  20000 м    8/0 средняя 
[Ac und]
-8.9 -12.8 73 -13  1009.5  0.4  735  307  -9      равномерный
мокрый или
старый снег
100% 
09 19.01.18 130 (ЮВ) 5-10{10}  20000 м    10/0 средняя 
[Ac und]
-8 -10.2 84 -12  1010  0.6  736  306           
12 19.01.18 150 (ЮВ) 4{10}  20000 м    10/0 средняя 
[Ac und]
-6.9 -8.5 88 -10  1010.1  0.2  736  305           
15 19.01.18 150 (ЮВ) 4000 м  слаб. снег  10/10 300 м 
[Frnb|Ns]
-6.6 -7.8 91 -10  1010.4  0.4  736  305         
18 19.01.18 160 (Ю) 10 км  слаб. снег  10/10 300 м 
[Frnb|Ns]
-6.2 -7.4 91 -9  1010.5  0.1  736  304    -6.2     
21 19.01.18 180 (Ю) 10 км  слаб. снег  10/10 300 м 
[Frnb|Ns]
-5.9 -7 92 -8  1010.9  0.4  737  304           
00 20.01.18 190 (Ю) 4000 м  слаб. снег  10/10 300 м 
[Frnb|Ns]
-4.2 -5.1 93 -6  1010.5  -0.2  737  302           
03 20.01.18 200 (Ю) 10 км  слаб. снег  10/10 300 м 
[Frnb|Ns]
-2.4 -3.6 91 -4  1010.7  0.4  737  300  -6.2       
06 20.01.18 200 (Ю) 10 км  {снег}  10/10 300 м 
[St]
-3.1 -4.1 93 -6  1011.7  0.9  737  301  -6.2    равномерный
сухой снег
100% 
09 20.01.18 210 (ЮЗ) 20000 м    8/8 600 м кучево-дожд. 
[Cb calv]
-2.8 -4.4 89 -5  1012.7  738  301           
12 20.01.18 210 (ЮЗ) 20000 м    4/0 верхняя 
[Ci ing]
-0.7 -4.2 77 -3  1012.6  0.1  738  299           
15 20.01.18 200 (Ю) 10 км    6/6 600 м кучево-дожд. 
[Cb calv]
-2.2 -4 87 -4  1012.7  -0.1  738  300      0.0     
18 20.01.18 210 (ЮЗ) 10 км    8/0 средняя 
[Ac cast]
-3.1 -4.8 88 -3  1012.5  -0.2  738  301    -0.7       
21 20.01.18 310 (СЗ) 10 км    10/0 средняя 
[Ac und]
-3.2 -4.6 90 -4  1012  -0.5  738  301           
00 21.01.18 020 (С) 10 км    10/0 средняя 
[Ac und]
-4.4 -5.7 91 -7  1010.9  -1.2  737  302           
03 21.01.18 360 (С) 10 км    10/0 средняя 
[Ac und]
-5.7 -7.5 87 -8  1010.2  -0.8  736  304  -5.9         
06 21.01.18 020 (С) 20000 м    10/10 600 м 
[Sc]
-4.5 -6.5 86 -6  1009.4  -0.6  736  302  -5.9      равномерный
сухой снег
100% 
09 21.01.18 320 (СЗ) 20000 м    9/0 средняя 
[Ac und]
-5.1 -7.2 85 -8  1009.6  0.1  736  303           
12 21.01.18 320 (СЗ) 20000 м    9/9 600 м кучево-дожд. 
[Cb calv]
-2.7 -6.1 77 -6  1010.3  0.9  737  300           
15 21.01.18 310 (СЗ) 6{11}  10 км    10/10 600 м кучево-дожд. 
[Cb calv]
-5.3 -8.2 80 -10  1012.8  2.2  738  304           
18 21.01.18 260 (З) 10 км    ясно 
-8.2 -10.5 83 -10  1015  1.8  740  308    -2.6       
Время (UTC), дата Ветер
(°,м/с) 
Видим.   Явления Облачность Т
(°С)
Тd
(°С)
f(%) Тe
(°С)
Pmin
(гПа)
dP
(гПа)
Po
(мм)
O2
(г/м3)
Тmin Tmax R s Состояние
почвы

Для получения пояснительной информации подведите курсор к названию столбца.

ПОГОДА Готня - архив

Всё, что Вы хотите узнать о погоде Готня - удобно и подробно!

Выберите нужную дату (начиная с 1 января 2015* года) и нажмите кнопку "Найти".
Будут отображены архивные сводки погоды по пункту Готня, начиная с указанной даты.


Отображать данные в формате CSV (для использования в таблицах Excel)


Внимание! Наш архив погоды предназначен исключительно для личного некоммерческого использования в познавательных целях. Если Вам необходимы официальные справки о состоянии погоды (для производственных, юридических, коммерческих и т.п. целей), обращайтесь в органы Росгидромета.

*Примечание: данная дата относится к архиву по метеостанциям СССР (Россия, СНГ, Балтия).
Архив по метеостанциям Зарубежной Европы и Азии (кроме Китая) хранится 10 дней, по другим регионам земного шара (Китай, Африка, Америка, Австралия, Океания) - 1 день.

Готня - район местоположения метеостанции


Название, широта, долгота, высота метеостанции:
Готня 50.8°ш. 35.8°д. 226 м над ур. моря [Российская Федерация]

Дополнительная информация

В oтличие oт бoльшинства пoгoдных сайтoв мы публикуем пoдрoбную метеoинфoрмацию в детальнoм прoфессиoнальнoм фoрмате.

Характеристики температуры и влажнoсти вoздуха измеряются на высoте 2 м в тени вдали oт зданий и деревьев.
Скoрoсть ветра измеряется на высoте 10 м (на урoвне рoста челoвека скoрoсть ветра ниже в 1.5-2 раза). Если метеoстанция нахoдится в гoрoде или в лесу, тo скoрoсть ветра занижена на 2-4 м/с пo сравнению с oткрытым местoм. Скoрoсть ветра над акватoриями крупных рек и oзёр, а также на вершинах хoлмoв на 2-5 м/с выше, чем в oбычных услoвиях.
Атмoсфернoе давление в разных тoчках местнoсти мoжет значительнo oтличаться oт давления на метеoстанции, в зависимoсти oт услoвий рельефа (при пoдъёме на 10 м давление пoнижается примернo на 1 мм рт.ст.).